Lapse_Rate
7.9 7.7 7.5 8.3 8.6 8.5 8.4 8.1 8.1 7.9 7.4 7.2 7.3 7.1 7.4 7.4 7.3 7.1 7.3 7.3 7.3 7.3 6.5 6.1 5.8 5.6 5.7 5.6 5.7 5.6 5.5 5.3 5.4 5.4 5.6 5.6 5.9 6.3 6.5 6.6 6.5 6.4 6.5 6.5
7.9 7.4 7.8 8.1 8.3 8.1 8.1 8.0 8.3 8.5 8.0 7.7 7.4 7.5 7.7 7.7 7.9 7.5 7.4 7.4 7.2 6.7 7.0 6.6 5.9 5.8 5.9 5.6 5.7 5.7 5.5 5.4 5.2 5.3 5.4 5.5 5.9 6.2 6.6 6.7 6.8 6.7 6.7 6.6
7.8 7.7 7.9 8.0 8.1 7.7 7.8 7.8 8.6 8.4 8.0 7.8 7.7 7.7 7.5 7.8 7.8 7.7 7.8 7.6 7.4 7.0 6.8 6.7 6.2 6.1 5.8 5.9 5.9 5.7 5.6 5.4 5.2 5.2 5.6 5.5 5.7 6.1 6.7 6.9 6.9 6.8 6.6 6.7
7.8 8.2 8.1 8.0 8.0 8.0 7.7 7.9 8.5 8.3 8.0 8.0 7.8 7.3 7.4 7.9 7.9 7.7 8.0 8.3 8.1 7.4 7.2 6.5 6.3 6.1 6.1 5.9 5.7 5.6 5.6 5.4 5.2 5.2 5.5 5.7 5.8 6.0 6.6 6.7 7.0 7.0 6.9 6.9
7.2 7.8 7.9 7.9 7.9 8.2 7.8 8.3 8.4 8.3 8.0 7.6 7.7 7.1 7.6 7.8 7.7 7.9 8.6 8.7 8.5 7.7 7.1 7.2 6.7 6.5 6.0 5.9 5.7 5.8 5.7 5.4 5.1 5.4 5.6 5.8 5.9 6.0 6.4 6.8 7.2 7.3 7.2 7.1
7.5 7.8 7.9 7.8 8.1 8.4 8.4 8.3 8.4 8.0 7.9 6.5 7.7 7.2 7.5 7.9 8.1 8.6 8.6 8.8 8.5 8.1 7.3 7.2 6.5 6.3 5.9 5.7 5.5 5.6 5.8 5.3 5.2 5.5 5.5 5.9 6.0 6.0 6.3 6.9 7.4 7.5 7.5 7.3
7.1 7.4 7.6 7.7 8.0 8.1 8.3 7.9 7.7 7.2 6.5 5.0 7.8 7.2 7.5 8.2 8.7 8.6 8.6 8.6 8.4 7.9 7.3 7.5 6.9 6.6 6.3 5.8 5.8 5.7 5.6 5.5 5.4 5.5 5.5 5.8 6.1 6.1 6.2 6.6 7.3 7.6 7.4 7.4
7.0 7.2 7.3 7.4 7.8 8.0 8.2 8.1 7.7 6.7 5.9 6.3 7.9 7.2 8.0 8.6 8.7 8.4 8.6 8.7 8.5 8.2 7.7 7.4 7.0 6.8 6.4 6.3 6.0 5.7 5.6 5.6 5.7 5.7 5.8 5.8 5.9 6.2 6.2 6.5 6.9 7.4 7.4 7.5
6.8 6.8 7.1 7.3 7.6 7.6 7.9 7.8 7.9 8.1 7.7 6.7 7.4 7.6 8.4 8.8 8.8 8.9 8.9 9.1 8.7 8.4 8.0 7.5 7.3 6.6 6.4 6.3 6.1 5.9 5.6 5.6 5.8 5.8 5.8 6.0 6.1 6.3 6.4 6.6 6.8 7.1 7.3 7.5
6.6 6.5 6.9 7.2 7.4 7.5 7.6 7.9 7.9 7.6 6.6 5.6 6.8 7.1 8.2 8.7 8.8 8.5 8.9 9.0 8.6 8.1 7.6 7.2 7.0 6.8 6.2 6.4 6.1 5.8 5.5 5.4 5.7 5.8 5.9 6.2 6.3 6.3 6.3 6.4 6.8 7.0 7.2 7.4
6.8 6.7 6.9 7.2 7.2 7.3 7.5 7.5 7.7 7.9 8.0 5.9 5.6 7.0 7.6 8.6 8.9 9.0 8.8 8.6 8.7 8.4 7.8 7.5 7.1 7.1 6.5 6.2 6.1 5.9 5.7 5.4 5.3 5.6 5.7 6.1 6.4 6.4 6.3 6.4 6.7 6.9 7.1 7.3
7.0 6.9 6.7 7.1 7.5 7.5 7.6 7.7 7.7 7.5 7.2 7.5 7.2 6.7 8.3 8.9 8.8 8.7 8.8 9.2 9.0 8.8 8.6 7.6 7.0 7.0 6.8 6.3 6.5 6.2 5.9 5.6 5.6 5.7 5.6 5.9 6.4 6.4 6.4 6.5 6.7 6.8 7.0 7.3
7.1 6.9 7.0 7.1 7.7 7.8 7.5 7.6 7.7 7.7 7.8 7.7 6.8 6.7 8.0 8.3 8.7 8.7 8.8 9.0 9.2 9.0 8.8 8.4 7.6 7.2 7.0 6.8 6.6 6.6 6.2 6.0 5.9 5.8 5.7 5.8 6.2 6.5 6.6 6.6 6.7 6.8 7.0 7.2
7.5 7.2 7.1 6.8 7.1 6.9 7.1 7.3 7.3 7.6 7.6 7.3 7.0 7.1 7.5 8.3 8.5 8.9 8.8 9.0 9.2 9.0 8.9 9.0 7.9 7.5 7.3 7.2 6.7 6.7 6.6 6.2 6.1 6.1 5.9 5.8 6.2 6.6 6.7 6.7 6.8 6.9 7.0 7.3
7.6 7.6 7.5 7.3 7.0 6.8 7.2 7.2 7.3 7.3 7.5 7.6 7.2 7.3 7.7 8.2 8.5 8.8 8.7 8.7 9.1 8.9 8.7 8.6 8.3 8.0 7.7 7.4 7.0 6.6 6.6 6.3 6.2 6.3 6.1 6.1 6.3 6.6 6.6 6.7 6.8 7.0 7.0 7.3
7.2 7.5 7.6 7.9 7.6 7.2 7.2 7.5 7.5 7.5 7.5 7.4 7.5 7.6 7.6 8.1 8.4 8.6 8.7 8.9 9.0 9.0 9.0 8.8 8.9 8.6 8.0 7.8 7.5 6.9 6.5 6.4 6.2 6.2 6.3 6.4 6.3 6.5 6.6 6.7 6.9 7.0 7.2 7.2
6.9 7.3 7.4 7.8 8.1 7.7 7.6 7.8 7.8 7.6 7.6 7.4 7.5 7.8 7.9 8.1 8.4 8.7 8.9 9.1 9.0 9.2 9.0 8.8 8.8 8.8 8.5 7.8 7.5 7.3 6.7 6.2 6.2 6.2 6.2 6.3 6.4 6.4 6.7 6.7 6.9 7.0 7.2 7.2
6.6 6.6 7.1 7.6 8.2 7.6 8.0 7.7 7.7 7.7 7.3 7.3 7.5 7.8 7.9 8.2 8.5 8.7 9.0 9.0 8.9 9.1 9.0 8.8 8.6 8.6 8.6 7.7 7.1 7.2 6.6 6.1 6.0 6.1 6.1 6.3 6.4 6.5 6.6 6.7 6.8 7.0 7.1 7.3
6.7 6.5 6.8 7.2 7.0 8.4 8.3 7.6 7.5 7.4 7.1 7.2 7.4 7.6 7.8 8.1 8.6 8.8 9.0 9.1 9.1 9.3 8.9 8.5 8.3 8.3 8.3 7.7 7.5 6.9 6.9 6.2 6.0 6.1 6.2 6.2 6.5 6.6 6.6 6.7 6.9 7.0 7.2 7.4
6.7 6.7 6.6 6.7 6.6 7.0 8.2 8.0 7.2 7.4 6.9 6.9 7.2 7.8 8.3 8.1 8.5 9.0 9.1 9.1 9.1 9.2 8.8 8.6 8.3 7.6 7.5 7.4 7.0 6.8 6.6 6.1 6.1 6.2 6.5 6.5 6.5 6.6 6.6 6.8 7.0 7.1 7.2 7.4
6.9 7.0 6.7 6.9 6.8 7.6 7.9 8.4 8.1 7.8 7.0 7.0 6.9 6.6 7.7 7.7 7.9 8.9 9.0 9.1 9.2 9.2 8.6 8.6 8.5 7.8 8.1 7.5 7.1 6.8 6.6 6.2 6.5 6.5 6.4 6.3 6.5 6.7 6.9 7.0 7.0 7.1 7.3 7.5
7.4 7.4 7.3 7.6 7.1 7.3 7.5 8.1 7.8 6.8 6.7 6.8 6.6 6.4 6.5 7.0 7.3 8.3 8.5 8.6 8.9 8.8 8.5 8.6 8.4 8.4 8.0 7.5 7.0 6.6 6.5 6.5 6.4 6.7 6.6 6.4 6.5 6.8 7.1 7.2 7.2 7.1 7.3 7.5
7.5 7.6 8.2 7.6 8.0 7.7 6.8 7.1 7.0 7.0 6.7 6.6 6.8 6.7 6.7 6.9 7.0 7.2 7.6 8.0 8.4 8.3 8.4 8.4 8.4 8.1 7.7 7.3 7.0 6.8 6.7 6.7 6.4 6.6 6.7 6.5 6.5 6.7 7.0 7.1 7.3 7.3 7.4 7.7
7.4 7.6 7.8 7.4 7.8 7.8 6.6 6.7 6.7 6.9 6.7 6.9 6.8 6.6 6.7 6.4 6.8 7.0 7.4 7.8 8.1 8.1 8.0 8.2 8.2 7.8 7.7 7.3 7.1 7.2 7.0 7.0 6.6 6.4 6.6 6.5 6.6 6.8 7.1 7.3 7.4 7.5 7.6 7.9
7.6 7.6 7.7 7.0 7.0 7.1 6.4 6.7 6.7 6.6 6.7 6.4 6.4 6.7 6.7 6.5 6.1 6.9 6.8 7.3 7.7 8.0 8.2 8.4 8.3 8.0 7.6 7.3 7.2 7.2 7.2 7.1 7.0 6.7 6.6 6.7 6.8 6.9 7.0 7.3 7.5 7.6 7.9 8.1
8.0 7.8 7.4 7.1 6.9 6.6 6.6 6.7 7.4 6.9 6.7 6.4 6.5 6.6 6.7 6.5 6.5 6.2 7.0 7.2 7.6 8.0 8.3 8.4 8.3 8.1 7.8 7.6 7.3 7.4 7.3 7.2 7.1 6.9 6.8 6.8 7.0 7.1 7.3 7.4 7.5 7.6 7.9 8.1
Wind_Speed
3 4 5 9 6 5 4 2 3 3 5 5 6 5 13 15 9 12 14 15 15 19 16 10 10 10 10 8 8 9 8 6 5 2 2 1 1 0 1 2 2 2 0 2
3 6 9 4 5 3 3 1 5 5 4 5 4 10 8 15 17 20 19 17 17 14 13 13 13 11 11 12 11 10 10 7 5 3 2 2 2 1 1 2 3 3 2 2
9 8 7 6 3 4 3 4 3 5 4 2 3 6 4 9 10 12 13 16 17 19 17 16 15 14 13 12 13 13 12 10 6 6 3 2 3 2 1 1 1 3 4 3
5 3 8 5 5 7 5 7 3 4 3 3 3 5 5 7 17 15 15 16 17 18 17 14 16 15 15 14 13 13 11 9 7 8 5 5 4 3 3 2 2 1 2 2
9 8 7 5 7 7 9 4 5 3 4 2 3 0 7 5 5 14 20 20 20 20 19 19 19 18 15 14 14 12 10 9 8 9 7 5 4 3 2 1 1 1 1 2
6 3 6 9 5 9 4 3 6 5 4 1 7 6 7 5 9 9 19 22 22 21 21 18 18 16 15 14 13 12 11 10 8 10 8 8 8 5 3 2 2 2 1 2
2 2 2 3 5 3 6 6 2 3 1 5 2 5 13 8 11 11 18 23 25 23 20 19 19 17 16 17 16 13 13 13 10 11 9 9 8 7 7 5 3 3 2 2
6 4 7 3 6 7 6 9 6 6 3 4 3 6 7 10 10 7 13 21 22 23 21 21 21 20 19 18 17 17 16 14 12 11 10 9 8 6 5 5 4 3 3 3
5 5 4 5 5 9 4 4 6 5 1 2 4 7 9 9 9 4 6 11 18 22 22 23 21 20 20 20 20 20 17 16 14 14 10 10 9 8 7 7 5 3 3 3
2 1 3 4 5 2 8 8 3 3 6 5 5 5 6 7 7 2 5 10 16 19 19 19 20 20 19 19 19 19 18 19 15 14 12 11 11 9 7 5 6 6 4 4
1 3 5 3 5 9 2 3 5 5 5 6 2 8 7 10 11 8 8 13 16 20 20 20 20 20 21 20 19 19 18 18 15 14 13 11 11 10 9 7 7 6 5 5
4 4 4 10 4 2 5 10 10 6 6 3 4 13 5 9 5 6 9 13 12 16 17 16 16 16 18 20 20 20 19 18 17 15 13 13 11 10 10 9 8 8 8 6
2 3 2 6 5 5 2 2 5 4 4 11 5 7 2 6 9 7 10 9 11 12 16 16 16 17 19 19 19 20 20 19 18 15 14 13 12 11 13 12 9 8 8 8
3 3 3 5 3 1 4 3 4 6 4 5 7 6 8 13 10 8 8 8 11 13 17 18 17 19 19 19 19 19 19 19 18 17 16 15 14 14 13 11 9 9 9 9
4 3 3 5 8 3 4 6 6 5 6 7 7 9 9 11 11 10 9 6 10 12 15 19 20 21 20 19 19 18 18 18 18 18 17 17 15 14 11 10 10 9 10 10
6 1 2 5 2 3 5 9 9 8 4 8 3 7 4 9 9 8 11 8 11 13 19 20 19 19 22 22 20 19 18 18 17 17 18 16 14 12 12 11 11 10 10 10
3 2 3 5 6 7 3 6 5 3 5 2 3 5 7 11 13 11 12 10 15 17 16 15 20 23 21 22 21 21 21 17 17 18 16 15 14 14 13 12 11 11 11 9
3 2 1 3 6 2 3 7 2 5 4 2 5 10 12 12 16 18 14 7 13 8 9 12 14 17 21 20 20 17 16 17 18 18 17 15 15 15 13 11 12 11 9 11
4 4 1 2 2 6 2 6 7 6 3 10 14 16 17 15 9 8 3 5 8 8 7 7 9 11 14 18 17 17 17 17 17 17 17 16 15 15 13 13 13 12 9 10
5 4 3 2 2 6 3 13 12 7 4 14 15 16 18 14 4 3 20 18 14 8 6 7 7 8 13 13 14 16 17 17 18 17 17 16 16 16 15 15 13 12 9 10
3 2 5 3 3 6 11 20 12 6 4 19 15 15 15 8 6 16 16 14 8 5 6 6 10 14 14 13 15 16 15 18 20 18 16 15 15 17 16 14 12 10 10 9
2 4 3 2 2 6 15 6 5 7 11 14 14 14 13 14 13 14 14 13 12 12 8 7 9 11 11 13 15 16 16 20 14 13 13 15 15 12 11 13 10 10 10 10
1 1 1 3 4 4 8 9 7 10 9 10 12 15 14 13 13 14 14 16 15 15 11 5 7 8 9 13 16 16 21 11 12 12 13 12 11 11 10 11 10 8 9 9
2 2 1 4 2 8 9 8 10 11 13 14 16 13 12 11 13 13 12 13 14 14 14 10 4 3 4 5 11 16 8 10 13 14 13 12 12 11 11 8 9 9 9 9
3 2 2 5 4 12 5 11 15 15 14 17 17 12 13 12 11 11 11 13 12 13 14 15 13 9 5 4 5 4 6 9 10 10 9 10 10 11 10 11 11 11 13 13
2 2 2 2 6 5 11 13 17 15 16 17 18 14 13 12 11 11 9 12 13 14 15 15 16 16 15 12 9 7 4 10 12 12 10 10 9 8 9 8 9 9 9 13
Wind_Direction
158 120 191 208 183 151 139 133 253 258 205 164 225 211 187 185 183 185 188 187 195 191 187 175 179 186 184 177 171 176 166 184 151 163 135 59 223 353 263 224 182 135 101 127
75 195 209 119 159 145 122 159 276 291 216 167 212 257 187 181 198 193 189 190 195 198 177 175 182 176 176 179 187 182 182 175 181 162 161 154 160 193 246 202 202 183 204 181
187 206 160 153 154 147 149 173 225 237 360 264 113 294 179 210 221 208 209 200 192 193 190 183 183 182 176 184 185 187 185 183 179 169 134 85 62 50 60 211 229 218 199 188
208 188 161 157 176 147 236 215 199 254 69 233 133 275 263 189 210 206 203 203 201 198 195 192 185 182 183 188 185 187 180 182 184 171 164 155 175 168 219 199 171 232 206 190
217 163 162 176 183 155 227 178 219 207 209 37 201 74 272 109 195 220 211 206 202 199 196 185 188 185 187 178 184 183 177 184 185 180 175 170 177 191 170 169 176 219 289 237
178 148 163 201 160 175 116 107 39 51 101 258 228 167 273 194 207 225 214 209 202 196 196 191 189 178 180 180 181 178 177 196 184 182 182 182 183 183 175 178 224 240 216 246
1 210 202 131 111 126 105 85 318 327 346 219 180 160 241 264 242 221 197 206 201 194 191 185 183 182 180 180 183 183 184 198 186 185 186 191 194 189 197 195 208 211 200 216
157 270 162 177 167 170 170 150 155 196 209 261 139 218 253 236 275 229 200 203 193 190 189 190 186 182 182 182 185 187 188 199 190 187 194 195 192 199 199 192 188 210 207 215
142 253 259 201 150 138 187 143 188 118 26 17 250 283 301 275 276 313 238 183 188 189 190 188 185 185 183 182 186 190 190 198 194 195 189 196 195 198 205 198 187 189 202 220
158 73 241 252 95 306 159 169 90 357 173 251 277 266 238 303 295 232 179 185 184 189 190 189 186 185 187 187 182 188 194 194 195 197 192 197 203 201 202 185 194 193 203 197
61 104 287 84 190 176 144 162 59 135 153 188 189 254 213 243 262 214 205 195 192 190 188 188 189 188 187 185 184 189 190 198 195 195 196 195 201 202 205 203 197 191 185 195
348 126 210 219 259 283 185 182 184 206 246 227 187 257 256 244 283 233 224 206 195 192 192 191 188 191 187 188 188 189 193 191 198 194 194 199 199 198 206 211 200 184 194 193
307 19 20 357 357 0 76 245 145 114 111 220 219 268 284 300 295 237 243 203 196 188 184 186 187 188 192 193 192 192 191 196 194 191 194 198 201 201 212 216 207 184 196 199
91 80 140 189 200 223 307 310 205 146 152 179 224 256 288 288 274 272 252 211 186 185 186 185 187 192 193 193 195 194 195 194 192 190 194 196 200 206 212 210 203 189 194 203
71 92 319 255 259 257 251 264 275 231 202 183 225 208 244 251 271 257 255 213 185 191 191 193 195 195 193 194 194 197 196 194 191 191 192 201 202 207 206 200 202 193 197 206
350 165 8 295 294 332 269 257 249 240 259 268 265 260 208 290 294 274 247 214 216 201 205 205 202 193 194 193 194 193 196 194 188 194 196 197 199 199 198 200 205 198 203 202
46 69 45 275 348 331 279 246 226 145 52 298 254 271 324 310 300 272 259 213 227 222 207 203 201 197 195 193 190 193 192 187 190 192 198 195 193 198 202 202 202 209 207 195
138 83 101 262 340 170 237 359 32 155 128 341 303 314 306 286 280 280 262 251 257 267 222 207 204 199 198 192 194 190 186 188 189 196 196 192 193 199 201 200 205 213 200 206
186 121 82 109 272 289 109 31 355 352 300 27 346 330 331 323 295 286 19 295 265 244 249 236 208 196 182 189 187 185 181 185 189 195 197 193 192 199 197 202 208 212 203 209
98 75 110 121 175 224 69 331 313 280 260 360 338 328 340 352 345 281 334 321 294 258 219 192 169 166 178 183 179 183 182 183 192 197 197 195 190 196 200 206 208 210 208 215
98 112 193 213 256 288 352 330 316 158 308 318 323 326 330 341 307 306 319 334 326 301 247 181 170 180 184 169 171 187 186 192 198 195 195 193 191 195 201 203 206 200 202 210
178 147 196 155 188 275 358 342 40 306 294 314 322 326 328 323 328 339 344 343 344 345 330 194 182 182 173 172 174 184 192 203 190 189 191 197 197 198 199 198 201 202 198 208
189 189 171 236 221 12 327 317 333 316 325 328 315 325 332 332 338 342 346 359 0 2 352 323 208 172 172 177 183 184 212 178 173 179 188 196 194 196 196 193 198 198 200 209
356 50 243 334 50 325 302 314 335 339 345 334 333 327 335 333 336 346 352 357 5 9 12 11 47 143 179 184 193 211 182 169 170 188 189 185 188 192 196 193 195 202 205 211
187 311 307 262 324 327 202 326 320 344 345 344 340 338 345 334 342 344 357 357 360 7 13 30 42 43 4 149 179 195 158 153 178 184 192 198 200 193 196 208 204 207 215 208
160 206 218 252 336 280 277 299 316 340 348 336 333 343 350 346 352 351 5 2 5 8 21 24 23 30 36 47 30 352 254 191 187 190 192 196 197 197 206 207 222 234 242 219